Tracking 19489 objects as of 22-Jan-2019
HD Live streaming from Space Station
objects crossing your sky now

SPACECUBE

Track SPACECUBE now!
10-day predictions
SPACECUBE is classified as:


NORAD ID: 42717
Int'l Code: 1998-067LY
Perigee: 293.4 km
Apogee: 297.3 km
Inclination: 51.6 °
Period: 90.3 minutes
Semi major axis: 6666 km
RCS: Unknown
Launch date: November 20, 1998
Source: (TBD)
Launch site: TYURATAM MISSILE AND SPACE COMPLEX (TTMTR)

Uplink (MHz): 145.860
Downlink (MHz): 436.880
Beacon (MHz):
Mode: 1200bps AFSK FM
Call sign: ON05FR
Status: Active

aabbcc
Your satellite tracking list
Your tracking list is empty




NASA's NSSDC Master Catalog

Two Line Element Set (TLE):
1 42717U 98067LY  19022.20101766  .00127536  17540-4  32731-3 0  9992
2 42717  51.6193 301.5686 0002965 122.6883 237.4411 15.95036642 95567
Source of the keplerian elements: AMSAT